Weather History for Perryton, TX

Change the Weather History Date:

Thursday, January 17, 2013

  Actual Average Record
Temperature  
Mean Temperature 38 °F -  
Max Temperature 51 °F 45 °F 66 °F (1990)
Min Temperature 26 °F 19 °F -4 °F (1978)
Degree Days  
Heating Degree Days 26    
Moisture  
Dew Point 26 °F    
Average Humidity 69    
Maximum Humidity 87    
Minimum Humidity 38    
Precipitation  
Precipitation 0.00 in - - ()
Sea Level Pressure  
Sea Level Pressure 30.43 in    
Wind  
Wind Speed 8 mph (West)    
Max Wind Speed 13 mph    
Max Gust Speed -    
Visibility 10 miles    
Events      
Averages and records for this station are not official NWS values.
T = Trace of Precipitation, MM = Missing Value Source: NWS Daily Summary

Daily Weather History Graph

Daily Weather History Graph

Search for Another Location

Airport:

Trip Planner

Search our weather history database for the weather conditions in past years. The results will help you decide how hot, cold, wet, or windy it might be!

Date:

Astronomy

Jan. 17, 2013 Rise Set
Actual Time 7:53 AM CST 5:53 PM CST
Civil Twilight 7:25 AM CST 6:21 PM CST
Nautical Twilight 6:53 AM CST 6:53 PM CST
Astronomical Twilight 6:22 AM CST 7:24 PM CST
Moon 11:13 AM CST (1/17) No Moon Set
Length of Visible Light 10h 56m
Length of Day
10h 00m
Waxing Crescent, 38% of the Moon is Illuminated
Jan 17
Waxing Crescent
Jan 18
First Quarter
Jan 26
Full
Feb 3
Last Quarter
Feb 10
New

Hourly Weather History & Observations

Time (CST) Temp. Windchill Dew Point Humidity Pressure Visibility Wind Dir Wind Speed Gust Speed Precip Events Conditions
12:15 AM 30.2 °F 20.8 °F 24.8 °F 80% 30.31 in 10.0 mi NNW 11.5 mph - N/A   Clear
12:35 AM 32.0 °F 23.6 °F 24.8 °F 75% 30.33 in 10.0 mi NNW 10.4 mph - N/A   Clear
12:55 AM 32.0 °F 25.6 °F 24.8 °F 75% 30.34 in 10.0 mi NNW 6.9 mph - N/A   Clear
1:15 AM 32.0 °F 23.6 °F 24.8 °F 75% 30.34 in 10.0 mi North 10.4 mph - N/A   Clear
1:35 AM 32.0 °F 22.5 °F 26.6 °F 80% 30.35 in 10.0 mi North 12.7 mph - N/A   Clear
1:55 AM 33.8 °F 26.4 °F 26.6 °F 75% 30.36 in 10.0 mi North 9.2 mph - N/A   Clear
2:15 AM 32.0 °F 26.4 °F 24.8 °F 75% 30.37 in 10.0 mi North 5.8 mph - N/A   Clear
2:35 AM 30.2 °F 21.9 °F 24.8 °F 80% 30.37 in 10.0 mi North 9.2 mph - N/A   Clear
2:55 AM 30.2 °F 22.6 °F 24.8 °F 80% 30.38 in 10.0 mi North 8.1 mph - N/A   Clear
3:15 AM 30.2 °F 23.4 °F 23.0 °F 75% 30.39 in 10.0 mi North 6.9 mph - N/A   Clear
3:35 AM 30.2 °F 21.9 °F 24.8 °F 80% 30.39 in 10.0 mi NNW 9.2 mph - N/A   Clear
3:55 AM 28.4 °F 19.7 °F 24.8 °F 86% 30.39 in 10.0 mi North 9.2 mph - N/A   Clear
4:15 AM 30.2 °F 22.6 °F 24.8 °F 80% 30.39 in 10.0 mi NNW 8.1 mph - N/A   Clear
4:35 AM 28.4 °F 21.2 °F 24.8 °F 86% 30.39 in 10.0 mi North 6.9 mph - N/A   Clear
4:55 AM 28.4 °F 21.2 °F 23.0 °F 80% 30.40 in 10.0 mi North 6.9 mph - N/A   Clear
5:15 AM 28.4 °F 23.3 °F 23.0 °F 80% 30.40 in 10.0 mi NW 4.6 mph - N/A   Clear
5:35 AM 26.6 °F 20.0 °F 23.0 °F 86% 30.42 in 10.0 mi West 5.8 mph - N/A   Clear
5:55 AM 26.6 °F 20.0 °F 23.0 °F 86% 30.42 in 10.0 mi WNW 5.8 mph - N/A   Clear
6:15 AM 26.6 °F 18.2 °F 23.0 °F 86% 30.42 in 10.0 mi NW 8.1 mph - N/A   Clear
6:35 AM 26.6 °F 17.5 °F 23.0 °F 86% 30.42 in 10.0 mi WNW 9.2 mph - N/A   Clear
6:55 AM 26.6 °F 20.0 °F 23.0 °F 86% 30.43 in 10.0 mi WNW 5.8 mph - N/A   Clear
7:15 AM 26.6 °F 18.2 °F 23.0 °F 86% 30.44 in 10.0 mi WNW 8.1 mph - N/A   Clear
7:35 AM 26.6 °F 18.2 °F 23.0 °F 86% 30.45 in 10.0 mi WNW 8.1 mph - N/A   Clear
7:55 AM 26.6 °F 17.5 °F 23.0 °F 86% 30.45 in 10.0 mi WNW 9.2 mph - N/A   Clear
8:15 AM 26.6 °F 21.2 °F 23.0 °F 86% 30.46 in 10.0 mi WNW 4.6 mph - N/A   Clear
8:35 AM 28.4 °F 23.3 °F 23.0 °F 80% 30.47 in 10.0 mi West 4.6 mph - N/A   Clear
8:55 AM 30.2 °F 23.4 °F 26.6 °F 86% 30.48 in 10.0 mi WNW 6.9 mph - N/A   Clear
9:15 AM 32.0 °F 24.2 °F 28.4 °F 87% 30.49 in 10.0 mi WNW 9.2 mph - N/A   Clear
9:35 AM 33.8 °F 26.4 °F 28.4 °F 81% 30.51 in 10.0 mi NW 9.2 mph - N/A   Clear
9:55 AM 35.6 °F 29.2 °F 28.4 °F 75% 30.51 in 10.0 mi NW 8.1 mph - N/A   Clear
10:15 AM 39.2 °F 35.9 °F 28.4 °F 65% 30.52 in 10.0 mi NNW 4.6 mph - N/A   Clear
10:35 AM 41.0 °F 38.0 °F 28.4 °F 61% 30.52 in 10.0 mi North 4.6 mph - N/A   Clear
10:55 AM 42.8 °F 41.1 °F 28.4 °F 57% 30.52 in 10.0 mi NE 3.5 mph - N/A   Clear
11:15 AM 42.8 °F - 28.4 °F 57% 30.51 in 10.0 mi Calm Calm - N/A   Clear
11:35 AM 44.6 °F 43.1 °F 28.4 °F 53% 30.51 in 10.0 mi NNW 3.5 mph - N/A   Clear
11:55 AM 46.4 °F - 28.4 °F 50% 30.50 in 10.0 mi Calm Calm - N/A   Clear
12:15 PM 46.4 °F 45.2 °F 28.4 °F 50% 30.49 in 10.0 mi West 3.5 mph - N/A   Clear
12:55 PM 50.0 °F - 28.4 °F 43% 30.48 in 10.0 mi Calm Calm - N/A   Clear
1:15 PM 50.0 °F - 28.4 °F 43% 30.47 in 10.0 mi West 3.5 mph - N/A   Clear
1:35 PM 50.0 °F - 28.4 °F 43% 30.46 in 10.0 mi West 3.5 mph - N/A   Clear
1:55 PM 51.8 °F - 28.4 °F 41% 30.45 in 10.0 mi Calm Calm - N/A   Clear
2:15 PM 51.8 °F - 28.4 °F 41% 30.44 in 10.0 mi WSW 5.8 mph - N/A   Clear
2:35 PM 51.8 °F - 28.4 °F 41% 30.43 in 10.0 mi SW 6.9 mph - N/A   Clear
2:55 PM 51.8 °F - 26.6 °F 38% 30.43 in 10.0 mi SSW 6.9 mph - N/A   Clear
3:15 PM 51.8 °F - 26.6 °F 38% 30.42 in 10.0 mi SW 6.9 mph - N/A   Clear
3:35 PM 51.8 °F - 26.6 °F 38% 30.42 in 10.0 mi South 4.6 mph - N/A   Clear
3:55 PM 51.8 °F - 26.6 °F 38% 30.42 in 10.0 mi SSW 6.9 mph - N/A   Clear
4:15 PM 51.8 °F - 26.6 °F 38% 30.42 in 10.0 mi South 8.1 mph - N/A   Clear
4:35 PM 51.8 °F - 28.4 °F 41% 30.42 in 10.0 mi SSW 6.9 mph - N/A   Clear
4:55 PM 51.8 °F - 26.6 °F 38% 30.42 in 10.0 mi South 8.1 mph - N/A   Clear
5:15 PM 50.0 °F - 28.4 °F 43% 30.42 in 10.0 mi South 6.9 mph - N/A   Clear
5:35 PM 46.4 °F 43.5 °F 28.4 °F 50% 30.42 in 10.0 mi South 5.8 mph - N/A   Clear
6:15 PM 41.0 °F 36.4 °F 26.6 °F 57% 30.42 in 10.0 mi South 6.9 mph - N/A   Clear
6:55 PM 33.8 °F 27.0 °F 26.6 °F 75% 30.42 in 10.0 mi South 8.1 mph - N/A   Clear
7:35 PM 32.0 °F 25.6 °F 26.6 °F 80% 30.42 in 10.0 mi South 6.9 mph - N/A   Clear
7:55 PM 32.0 °F 25.6 °F 26.6 °F 80% 30.42 in 10.0 mi South 6.9 mph - N/A   Clear
8:15 PM 32.0 °F 25.6 °F 26.6 °F 80% 30.42 in 10.0 mi South 6.9 mph - N/A   Clear
8:35 PM 32.0 °F 24.8 °F 26.6 °F 80% 30.42 in 10.0 mi South 8.1 mph - N/A   Clear
8:55 PM 32.0 °F 24.8 °F 26.6 °F 80% 30.42 in 10.0 mi South 8.1 mph - N/A   Clear
9:15 PM 32.0 °F 24.2 °F 26.6 °F 80% 30.42 in 10.0 mi South 9.2 mph - N/A   Clear
9:35 PM 32.0 °F 23.6 °F 28.4 °F 87% 30.41 in 10.0 mi South 10.4 mph - N/A   Clear
9:55 PM 33.8 °F 25.8 °F 28.4 °F 81% 30.41 in 10.0 mi South 10.4 mph - N/A   Clear
11:15 PM 33.8 °F 26.4 °F 28.4 °F 81% 30.39 in 10.0 mi South 9.2 mph - N/A   Clear
11:35 PM 33.8 °F 26.4 °F 28.4 °F 81% 30.39 in 10.0 mi SSW 9.2 mph - N/A   Clear
11:55 PM 32.0 °F 24.8 °F 28.4 °F 87% 30.38 in 10.0 mi SSW 8.1 mph - N/A   Clear